User: anonymous   Login
Location: Unspecified
(0.0000°N, 0.0000°E)
Time: 02:40:41
(UTC+00:00)
Language:

STARS-C - Orbit

View from above orbital plane
View from above orbital plane
View from above satellite
View from above satellite

Ground track
Ground track

The orbit data is extracted from the following two-line orbital elements,

1 41895U 98067KR  17205.43749206 +.00022359 +00000-0 +24428-3 0  9991
2 41895 051.6359 205.6310 0005294 080.2730 279.8862 15.63236987033812
Epoch (UTC): 24 July 2017 10:29:59
Eccentricity: 0.0005294
inclination: 51.6359°
perigee height: 375 km
apogee height: 382 km
right ascension of ascending node: 205.6310°
argument of perigee: 80.2730°
revolutions per day: 15.63236987
mean anomaly at epoch: 279.8862°
orbit number at epoch: 3381

The dashed part of the orbit path shows where the satellite is in the earth's shadow,  

DLR